Gainesville, GA

11:18 AM EST on December 13, 2019 (GMT -0500)
Gilmer Memorial

Weather History for KGVL - August, 2019

Change the Weather History Date:

Friday, August 2, 2019

  Actual Average Record
Temperature  
Mean Temperature 77 °F 79 °F  
Max Temperature 86 °F 88 °F 98 °F (1951)
Min Temperature 68 °F 70 °F 58 °F (1936)
Cooling Degree Days 12 14  
Month to date cooling degree days 26 28  
Year to date cooling degree days 1099 950  
Since 1 June cooling degree days 763 775  
Growing Degree Days 26 (Base 50)    
Moisture  
Dew Point 69 °F    
Average Humidity 81    
Maximum Humidity 100    
Minimum Humidity 61    
Precipitation  
Precipitation 0.05 in 0.16 in 2.45 in (1971)
Month to date precipitation 0.58 0.32  
Year to date precipitation 35.42 32.14  
Sea Level Pressure  
Sea Level Pressure 30.08 in    
Wind  
Wind Speed 6 mph (ENE)    
Max Wind Speed 13 mph    
Max Gust Speed 17 mph    
Visibility 8 miles    
Events Fog , Rain    
T = Trace of Precipitation, MM = Missing Value Source: NWS Daily Summary

Daily Weather History Graph

Daily Weather History Graph

Search for Another Location

Airport or City:

Astronomy

Aug. 02, 2019 Rise Set
Actual Time 6:46 AM EDT 8:35 PM EDT
Civil Twilight 6:19 AM EDT 9:03 PM EDT
Nautical Twilight 5:46 AM EDT 9:36 PM EDT
Astronomical Twilight 5:10 AM EDT 10:11 PM EDT
Moon 8:22 AM EDT (8/2) 10:07 PM EDT (8/2)
Length of Visible Light 14h 43m
Length of Day
13h 49m
Waxing Crescent, 4% of the Moon is Illuminated
Aug 2
Waxing Crescent
Aug 7
First Quarter
Aug 15
Full
Aug 23
Last Quarter
Aug 30
New

Hourly Weather History & Observations

Time (EDT) Temp. Heat Index Dew Point Humidity Pressure Visibility Wind Dir Wind Speed Gust Speed Precip Events Conditions
12:53 AM 68.0 °F - 68.0 °F 100% 30.11 in 9.0 mi Calm Calm - 0.03 in Rain Light Rain
1:53 AM 69.1 °F - 68.0 °F 96% 30.09 in 10.0 mi Calm Calm - 0.04 in Rain Light Rain
2:53 AM 69.1 °F - 68.0 °F 96% 30.06 in 10.0 mi NNE 5.8 mph - 0.01 in   Mostly Cloudy
3:53 AM 68.0 °F - 68.0 °F 100% 30.04 in 10.0 mi NE 4.6 mph - N/A   Partly Cloudy
4:49 AM 69.8 °F - 68.0 °F 94% 30.10 in 10.0 mi East 3.5 mph - N/A   Mostly Cloudy
4:53 AM 69.1 °F - 69.1 °F 100% 30.06 in 10.0 mi East 4.6 mph - N/A   Mostly Cloudy
5:53 AM 68.0 °F - 68.0 °F 100% 30.05 in 10.0 mi East 5.8 mph - N/A   Overcast
6:16 AM 69.1 °F - 68.0 °F 96% 30.10 in 10.0 mi ENE 4.6 mph - N/A   Scattered Clouds
6:53 AM 69.1 °F - 69.1 °F 100% 30.06 in 10.0 mi East 4.6 mph - N/A   Clear
7:04 AM 69.1 °F - 69.1 °F 100% 30.11 in 9.0 mi East 6.9 mph - N/A   Scattered Clouds
7:13 AM 69.1 °F - 69.1 °F 100% 30.11 in 7.0 mi ENE 6.9 mph - N/A   Mostly Cloudy
7:25 AM 68.0 °F - 68.0 °F 100% 30.11 in 5.0 mi ENE 9.2 mph - N/A   Overcast
7:36 AM 68.0 °F - 68.0 °F 100% 30.12 in 2.0 mi ENE 6.9 mph - N/A   Overcast
7:39 AM 69.1 °F - 69.1 °F 100% 30.12 in 1.5 mi East 6.9 mph - N/A   Overcast
7:44 AM 68.0 °F - 68.0 °F 100% 30.12 in 0.8 mi East 6.9 mph - N/A   Overcast
7:53 AM 68.0 °F - 68.0 °F 100% 30.09 in 0.2 mi ENE 5.8 mph - N/A Fog Fog
8:10 AM 68.0 °F - 68.0 °F 100% 30.13 in 1.2 mi ENE 6.9 mph - N/A   Overcast
8:13 AM 69.1 °F - 69.1 °F 100% 30.13 in 2.5 mi ENE 5.8 mph - N/A   Overcast
8:20 AM 69.1 °F - 69.1 °F 100% 30.13 in 4.0 mi ENE 8.1 mph - N/A   Overcast
8:29 AM 69.1 °F - 69.1 °F 100% 30.13 in 6.0 mi East 8.1 mph - N/A   Overcast
8:53 AM 70.0 °F - 70.0 °F 100% 30.10 in 6.0 mi East 8.1 mph - N/A   Overcast
9:12 AM 70.0 °F - 70.0 °F 100% 30.14 in 7.0 mi East 8.1 mph - N/A   Overcast
9:53 AM 72.0 °F - 70.0 °F 93% 30.10 in 10.0 mi East 10.4 mph - N/A   Mostly Cloudy
10:37 AM 73.0 °F - 70.0 °F 90% 30.14 in 10.0 mi ENE 8.1 mph - N/A   Overcast
10:53 AM 73.9 °F - 70.0 °F 87% 30.10 in 10.0 mi East 9.2 mph - N/A   Overcast
11:46 AM 75.9 °F - 70.0 °F 82% 30.14 in 10.0 mi East 6.9 mph - N/A   Overcast
11:53 AM 77.0 °F - 70.0 °F 79% 30.10 in 10.0 mi ESE 6.9 mph - N/A   Overcast
12:53 PM 78.1 °F - 70.0 °F 76% 30.11 in 10.0 mi ENE 5.8 mph - N/A   Overcast
1:53 PM 80.1 °F 83.2 °F 70.0 °F 71% 30.08 in 10.0 mi ENE 5.8 mph - N/A   Mostly Cloudy
2:13 PM 82.0 °F 86.3 °F 71.1 °F 69% 30.11 in 10.0 mi NE 8.1 mph - N/A   Scattered Clouds
2:49 PM 80.6 °F 84.6 °F 71.6 °F 74% 30.09 in 10.0 mi East 4.6 mph - N/A   Mostly Cloudy
2:53 PM 81.0 °F 84.4 °F 70.0 °F 69% 30.05 in 10.0 mi Variable 4.6 mph - N/A   Mostly Cloudy
3:17 PM 81.0 °F 84.4 °F 70.0 °F 69% 30.08 in 10.0 mi Variable 4.6 mph - N/A   Mostly Cloudy
3:53 PM 81.0 °F 84.4 °F 70.0 °F 69% 30.03 in 10.0 mi NE 4.6 mph - 0.00 in Rain Light Rain
4:53 PM 84.0 °F 87.8 °F 69.1 °F 61% 30.01 in 10.0 mi East 5.8 mph - 0.00 in   Partly Cloudy
5:53 PM 84.0 °F 87.8 °F 69.1 °F 61% 30.00 in 10.0 mi Variable 5.8 mph - N/A   Partly Cloudy
6:53 PM 82.9 °F 87.0 °F 70.0 °F 65% 29.99 in 10.0 mi NE 5.8 mph - N/A   Clear
7:53 PM 80.1 °F 83.6 °F 71.1 °F 74% 29.99 in 10.0 mi East 4.6 mph - N/A   Clear
8:53 PM 78.1 °F - 71.1 °F 79% 30.01 in 10.0 mi ENE 4.6 mph - N/A   Clear
9:53 PM 75.9 °F - 70.0 °F 82% 30.04 in 10.0 mi SE 9.2 mph - N/A   Mostly Cloudy
10:53 PM 73.0 °F - 69.1 °F 87% 30.05 in 10.0 mi NE 5.8 mph - N/A   Partly Cloudy
11:53 PM 73.0 °F - 69.1 °F 87% 30.06 in 10.0 mi ENE 8.1 mph - N/A   Partly Cloudy